DW2802 Ogijares ES current weather conditions

sailwx.info

Wind from 163

Air temperature 18.9° C
Dewpoint 6.4° C

Last reported at 2014-Aug-30 05:51 UTC.
Time now 2014-Aug-30 06:35 UTC

Location: N 37°07' W 003°36'.
View on Google Maps.

See reports from other nearby stations

  
Tides and Currents Weather Stations Pressure Air Temp Water Temp Dewpoint Dewpoint Depression Visibility Wind Speed Wind Dir Waves Ship Positions
date/time (UTC)wind fromknots sea level pressurealtimeterstation pressurevisibilityair tempwater tempwave heightnotes
2014-Aug-30 05:51 163 18.9
2014-Aug-30 05:36 165 18.9
2014-Aug-30 05:21 165 18.9
2014-Aug-30 05:06 165 18.9
2014-Aug-30 04:51 164 19.4
2014-Aug-30 04:36 165 19.4
2014-Aug-30 04:21 164 19.4
2014-Aug-30 04:06 164 19.4
2014-Aug-30 03:51 169 19.4
2014-Aug-30 03:36 169 20.0
2014-Aug-30 03:21 169 20.0
2014-Aug-30 03:06 169 20.0
2014-Aug-30 02:51 169 20.6
2014-Aug-30 02:36 169 20.6
2014-Aug-30 02:21 169 20.6
2014-Aug-30 02:06 169 21.1
2014-Aug-30 01:51 169 21.1
2014-Aug-30 01:36 169 21.7
2014-Aug-30 01:20 169 21.1
2014-Aug-30 01:06 169 21.1
2014-Aug-30 00:51 169 21.7
2014-Aug-30 00:35 169 21.1
2014-Aug-30 00:20 169 21.7
2014-Aug-30 00:05 169 21.7
2014-Aug-29 23:50 169 22.2
2014-Aug-29 23:35 169 22.2
2014-Aug-29 23:20 169 22.8
2014-Aug-29 23:05 169 22.8
2014-Aug-29 22:50 169 22.8
2014-Aug-29 22:35 169 22.8
2014-Aug-29 22:20 169 22.8
2014-Aug-29 22:05 170 22.8
2014-Aug-29 21:50 157 23.3
2014-Aug-29 21:35 157 23.9
2014-Aug-29 21:20 157 1 gusting 5 24.4
2014-Aug-29 21:05 157 25.0
2014-Aug-29 20:50 157 25.0
2014-Aug-29 20:35 157 3 gusting 6 25.6
2014-Aug-29 20:20 159 4 gusting 6 25.6
2014-Aug-29 20:05 169 3 gusting 4 26.1
2014-Aug-29 19:50 169 3 gusting 4 26.1
2014-Aug-29 19:35 170 3 gusting 4 26.7
2014-Aug-29 19:20 182 27.8
2014-Aug-29 19:05 293 28.9
2014-Aug-29 18:50 293 30.0
2014-Aug-29 18:35 293 30.6
2014-Aug-29 18:20 288 31.1
2014-Aug-29 18:05 266 2 gusting 8 31.7
2014-Aug-29 17:50 302 2 gusting 11 32.2
2014-Aug-29 17:35 294 6 gusting 11 32.2
2014-Aug-29 17:20 284 6 gusting 14 32.8
2014-Aug-29 17:05 304 2 gusting 11 32.8
2014-Aug-29 16:50 296 6 gusting 13 32.8
2014-Aug-29 16:35 336 6 gusting 13 33.3
2014-Aug-29 16:20 310 6 gusting 13 33.3
2014-Aug-29 16:05 346 6 gusting 13 33.3
2014-Aug-29 15:50 015 1 gusting 9 33.3
2014-Aug-29 15:35 305 0 gusting 8 33.3
2014-Aug-29 15:20 297 6 gusting 12 33.3
2014-Aug-29 15:05 355 4 gusting 12 33.9
2014-Aug-29 14:50 019 3 gusting 13 33.3
2014-Aug-29 14:35 022 4 gusting 10 32.8
2014-Aug-29 14:20 072 2 gusting 9 32.8
2014-Aug-29 14:05 005 4 gusting 9 32.8
2014-Aug-29 13:50 053 3 gusting 7 31.7
2014-Aug-29 13:35 031 1 gusting 7 31.7
2014-Aug-29 13:20 020 3 gusting 7 32.2
2014-Aug-29 13:05 360 4 gusting 6 32.2
2014-Aug-29 12:50 355 5 gusting 9 32.2
2014-Aug-29 12:35 023 0 gusting 3 32.2
2014-Aug-29 12:19 355 1 gusting 7 31.1
2014-Aug-29 12:04 325 3 gusting 7 30.6
2014-Aug-29 11:49 323 2 gusting 7 29.4
2014-Aug-29 11:34 287 29.4
2014-Aug-29 11:19 341 28.9
2014-Aug-29 11:04 265 1 gusting 6 28.9
2014-Aug-29 10:49 338 28.3
2014-Aug-29 10:34 056 27.8
2014-Aug-29 10:19 057 27.8
2014-Aug-29 10:04 176 26.7
2014-Aug-29 09:49 182 25.0
2014-Aug-29 09:34 168 25.0
2014-Aug-29 09:19 168 24.4
2014-Aug-29 09:04 168 23.9
2014-Aug-29 08:49 168 22.8
2014-Aug-29 08:34 168 22.2
2014-Aug-29 08:19 169 21.7
2014-Aug-29 08:04 169 21.1
2014-Aug-29 07:49 169 21.1
2014-Aug-29 07:34 169 20.6
2014-Aug-29 07:19 168 21.1
2014-Aug-29 07:04 168 21.1
2014-Aug-29 06:49 168 21.1
2014-Aug-29 06:34 168 20.0
2014-Aug-29 06:19 168 20.0
2014-Aug-29 06:03 168 20.0
2014-Aug-29 05:48 168 20.0
2014-Aug-29 05:18 168 20.6
2014-Aug-29 05:03 168 20.6
2014-Aug-29 04:48 168 21.7
2014-Aug-29 04:33 168 21.7
2014-Aug-29 04:18 168 22.2
2014-Aug-29 04:03 169 22.2
2014-Aug-29 03:48 169 22.2
2014-Aug-29 03:33 170 22.2
2014-Aug-29 03:18 170 22.8
2014-Aug-29 03:03 169 22.2
2014-Aug-29 02:48 169 22.8
2014-Aug-29 02:33 171 22.8
2014-Aug-29 02:18 150 22.8
2014-Aug-29 02:03 150 22.8
2014-Aug-29 01:48 150 23.3
2014-Aug-29 01:33 150 23.3
2014-Aug-29 01:18 148 1 gusting 4 23.3
2014-Aug-29 01:03 148 2 gusting 5 23.3
2014-Aug-29 00:48 148 2 gusting 5 23.3
2014-Aug-29 00:33 148 1 gusting 5 23.9
2014-Aug-29 00:18 148 2 gusting 5 23.9
2014-Aug-29 00:03 148 1 gusting 4 23.9
2014-Aug-28 23:48 148 3 gusting 6 24.4
2014-Aug-28 23:33 202 0 gusting 3 25.6
2014-Aug-28 23:18 165 25.0
2014-Aug-28 23:03 165 25.6
2014-Aug-28 22:48 165 25.6
2014-Aug-28 22:33 165 25.6
2014-Aug-28 22:18 165 3 gusting 5 26.1
2014-Aug-28 22:03 166 4 gusting 4 26.7
2014-Aug-28 21:48 192 0 gusting 4 27.2
2014-Aug-28 21:33 192 1 gusting 3 27.2
2014-Aug-28 21:18 196 2 gusting 5 27.2
2014-Aug-28 21:03 192 27.2
2014-Aug-28 20:47 193 27.2
2014-Aug-28 20:32 193 27.8
2014-Aug-28 20:17 193 28.3
2014-Aug-28 20:02 223 28.3
2014-Aug-28 19:47 224 28.9
2014-Aug-28 19:32 232 29.4
2014-Aug-28 19:17 236 30.0
2014-Aug-28 19:02 236 30.6
2014-Aug-28 18:47 236 31.1
2014-Aug-28 18:32 223 0 gusting 9 31.1
2014-Aug-28 18:17 281 5 gusting 9 32.2
2014-Aug-28 18:02 273 2 gusting 8 32.2
2014-Aug-28 17:47 275 3 gusting 9 32.8
2014-Aug-28 17:32 283 6 gusting 11 33.3
2014-Aug-28 17:17 275 6 gusting 13 33.9
2014-Aug-28 17:02 306 7 gusting 13 33.9
2014-Aug-28 16:47 303 3 gusting 13 34.4
2014-Aug-28 16:32 299 6 gusting 13 34.4
2014-Aug-28 16:17 278 5 gusting 14 34.4
2014-Aug-28 16:02 275 4 gusting 13 35.0
2014-Aug-28 15:47 246 3 gusting 12 35.0
2014-Aug-28 15:32 344 4 gusting 13 35.6
2014-Aug-28 15:17 317 3 gusting 10 35.6
2014-Aug-28 15:02 350 5 gusting 8 35.6
2014-Aug-28 14:47 009 2 gusting 9 35.0
2014-Aug-28 14:32 019 2 gusting 6 34.4
2014-Aug-28 14:17 032 2 gusting 9 33.9
2014-Aug-28 14:02 036 6 gusting 11 33.9
2014-Aug-28 13:47 310 4 gusting 12 33.9
2014-Aug-28 13:32 308 4 gusting 10 33.9
2014-Aug-28 13:17 304 1 gusting 12 34.4
2014-Aug-28 13:02 052 2 gusting 10 33.9
2014-Aug-28 12:47 310 5 gusting 13 33.3
2014-Aug-28 12:32 349 1 gusting 12 32.8
2014-Aug-28 12:17 241 6 gusting 11 33.3
2014-Aug-28 12:02 340 5 gusting 9 32.8
2014-Aug-28 11:47 323 0 gusting 6 32.2
2014-Aug-28 11:32 335 1 gusting 7 32.2
2014-Aug-28 11:17 315 4 gusting 8 31.7
2014-Aug-28 11:02 333 3 gusting 5 31.1
2014-Aug-28 10:47 344 0 gusting 5 31.1
2014-Aug-28 10:31 360 30.6
2014-Aug-28 10:16 299 0 gusting 4 30.0
2014-Aug-28 10:01 329 0 gusting 4 28.9
2014-Aug-28 09:46 296 28.3
2014-Aug-28 09:31 274 28.3
2014-Aug-28 09:16 242 27.8
2014-Aug-28 09:01 215 27.2
2014-Aug-28 08:46 130 26.7
2014-Aug-28 08:31 131 26.1
2014-Aug-28 08:16 131 25.0
2014-Aug-28 08:01 131 24.4
2014-Aug-28 07:46 131 23.9
2014-Aug-28 07:31 131 23.3
2014-Aug-28 07:16 131 22.8
2014-Aug-28 07:00 131 22.2
2014-Aug-28 06:45 131 22.2
2014-Aug-28 06:30 131 21.7
2014-Aug-28 06:15 131 21.7
2014-Aug-28 06:00 131 21.7